Regional Weather Roundup
Issued by NWS Charleston, SC

Current Version | Previous Version | Graphics & Text | Print | Product List | Glossary On
Versions: 1 2 3 4 5 6 7 8 9 10 11 12 13 14 15 16 17 18 19 20 21 22 23 24 25 26 27 28 29 30 31 32 33 34 35 36 37 38 39 40 41 42 43 44 45 46 47 48 49 50
000
ASUS42 KCHS 230227
RWRCHS

REGIONAL WEATHER ROUNDUP
NATIONAL WEATHER SERVICE CHARLESTON SC
1000 PM EDT SUN OCT 22 2017

NOTE: "FAIR" INDICATES FEW OR NO CLOUDS BELOW 12,000 FEET WITH NO
SIGNIFICANT WEATHER AND/OR OBSTRUCTIONS TO VISIBILITY.

NOT ALL STATIONS ARE QUALITY CONTROLLED. USE DATA WITH CAUTION...
ESPECIALLY DEWPOINT OBSERVATIONS.

SCZ027-030-031-034>040-042>050-230300-
...SOUTHEAST SOUTH CAROLINA...

CITY           SKY/WX    TMP DP  RH WIND       PRES   REMARKS
N CHARLESTON   LGT RAIN  71  71 100 NE9       30.20S FOG
WATERFRONT PRK NOT AVBL
JOHNS ISLAND   LGT RAIN  72  72 100 CALM      30.20S
PINOPOLIS      NOT AVBL
MONCKS CORNER  LGT RAIN  68  68 100 CALM      30.23S
SUMMERVILLE    DRIZZLE   70  70 100 E8        30.22S
BEAUFORT MCAS  CLOUDY    73  73 100 MISG      30.17F
BEAUFORT ARPT  CLOUDY    72  70  94 E3        30.17F
HILTON HEAD IS CLOUDY    73  70  88 CALM      30.17F
WALTERBORO     CLOUDY    70  70 100 E7        30.20F
ALLENDALE        N/A     70  70 100 VRB5        N/A

...SOUTHERN MIDLANDS AND PEE DEE...

CITY           SKY/WX    TMP DP  RH WIND       PRES   REMARKS
GEORGETOWN     LGT RAIN  72  70  94 SE6       30.25R
KINGSTREE      CLOUDY    68  64  88 CALM      30.24R
ORANGEBURG     RAIN      69  67  93 E6        30.21F FOG
BARNWELL         N/A     72  72 100 E7        30.19F
AIKEN          CLOUDY    68  68 100 E8        30.23F
MANNING        LGT RAIN  72  64  78 MISG      30.23R
COLUMBIA       CLOUDY    71  70  96 CALM      30.21F
SUMTER         CLOUDY    73  63  71 E9        30.20S
FLORENCE       PTCLDY    69  62  78 SE8       30.25S
MYRTLE BEACH   PTCLDY    73  67  81 E9        30.25S
N MYRTLE BEACH PTCLDY    70  66  87 NE8       30.25R

$$

GAZ063-065-086>088-099>101-113>116-118-119-134>141-150-230300-
...SOUTHEAST GEORGIA...

CITY           SKY/WX    TMP DP  RH WIND       PRES   REMARKS
SAVANNAH ARPT  LGT RAIN  72  71  97 E7        30.17S
HUNTER AAF     PTCLDY    72  70  93 E7        30.13F
FORT STEWART   CLOUDY    72  70  94 E6        30.12F
STATESBORO     RAIN      72  71  96 E6        30.18R
SYLVANIA       LGT RAIN  72  72 100 SE5       30.19R
CLAXTON        CLOUDY    73  72  94 E8        30.16R

...CSRA...CENTRAL AND FAR SOUTHEAST GEORGIA...

CITY           SKY/WX    TMP DP  RH WIND       PRES   REMARKS
THOMSON        CLOUDY    68  67  94 S7        30.23S
AUGUSTA-BUSH   CLOUDY    72  69  90 E7        30.17F
AUGUSTA-DANIEL CLOUDY    72  68  87 E9        30.19S
SWAINSBORO     CLOUDY    72  72 100 MISG      30.17R
VIDALIA        CLOUDY    72  72 100 E7        30.15S
EASTMAN        MOCLDY    73  73 100 E7        30.15S
HAZLEHURST     CLOUDY    75  66  75 SE5       30.12S
ALMA           CLOUDY    74  69  85 E7        30.12R
WAYCROSS       CLOUDY    75  72  90 SE7       30.12S
JESUP          NOT AVBL
BAXLEY         LGT RAIN  72  72 100 E7        30.13S
BRUNSWICK      CLOUDY    73  70  88 E6        30.14S
SAINT SIMONS   CLOUDY    77  73  87 E9        30.13S

$$

SCZ027-028-034-036>038-045-046-048>050-GAZ119-141-230300-
...LAKE AND SUPPLEMENTAL COASTAL OBSERVATIONS...

STATION/POSITION TIME  TEMP    WIND        PRES    WAVE   SWELL
                       AIR SEA DIR/SP/G            HT/PER HT/PER/DIR
                 (UTC) (F)     (DEG/KT/KT) (MB)    (FT/S) (FT/S/D)
WINYAH BAY       0145   75      80/ 10     1024.0R
LAKE MURRAY      0150   69      CALM  /  3 1022.7F
ACE BASIN NERRS  0145   72      40/  2     1022.0S
FORT PULASKI     0200   72 74  150/  2/  3 1021.9
SAPELO ISLAND    NOT AVBL

$$

ANZ835-935-AMZ111-154-330-350-352-354-370-450-454-472-230300-
...C-MAN AND BUOY OBSERVATIONS...

STATION/POSITION TIME  TEMP    WIND        PRES    WAVE   SWELL
                       AIR SEA DIR/SP/G            HT/PER HT/PER/DIR
                 (UTC) (F)     (DEG/KT/KT) (MB)    (FT/S) (FT/S/D)
BUOY 41004       0210   80 79  140/ 16/ 19 1022.2
BUOY 41008       0150   77 77  110/ 12/ 16 1020.3F   5/ 8   3/100/ 8
FOLLY BEACH CMAN 0200   73      50/  9/ 11 1023.0R
CAPERS NEARSHORE 0208   71 73  100/ 12/ 17 1022.3F
FRIPP NEARSHORE  0208   75     170/ 10/ 14   N/A


STATION/POSITION TIME  TEMP    WIND        PRES    WAVE   SWELL
                       AIR SEA DIR/SP/G            HT/PER HT/PER/DIR
                 (UTC) (F)     (DEG/KT/KT) (MB)    (FT/S) (FT/S/D)
5E ST. MARYS GA  0200      76                N/A     5/ 7
FRYING PAN BUOY  0210   77 77  110/ 16/ 19 1024.0
BUOY 41025       0150   77 81  120/ 10/ 12 1025.9R   3/ 9   3/100/ 9
CAPE LOOKOUT NC  0200   75     120/  8/  8 1025.3S
BUOY 41002       0150   77 80  100/ 14/ 16 1024.9R   4/ 8   3/ 90/ 8
BUOY 41010       NOT AVBL
ST AUGUSTINE FL  0200   78 78  140/ 14/ 16 1020.1R


$$



USA.gov is the U.S. government's official web portal to all federal, state and local government web resources and services.